{"data":{"norad_id":54002,"intl_designator":"2022-125AQ","name":"STARLINK-5109","alt_names":[],"object_type":"PAYLOAD","status":"ACTIVE","operator":null,"country":"US","launch_date":"2022-10-05","launch_site_code":"AFWTR","launch_vehicle":null,"mission":null,"orbit_class":"UNKNOWN","rcs_meters":null,"size_class":null,"mass_kg":null,"dimensions":null,"purposes":["comms"],"wikipedia_slug":null,"has_3d_model":false,"image_url":null,"decayed_at":null,"tle_current":{"epoch":"2026-09-20T14:16:57.129024Z","epoch_age_seconds":78283,"freshness":"FRESH","line1":"1 54002U 22125AQ  26263.59510566  .00000430  00000+0  25607-4 0  9999","line2":"2 54002  53.1630  33.3318 0000982  64.2964 295.8138 15.31719137219244","mean_motion":15.31719137,"eccentricity":9.82e-5,"inclination_deg":53.163,"raan_deg":33.3318,"arg_perigee_deg":64.2964,"mean_anomaly_deg":295.8138,"bstar":2.5607e-5,"rev_number":21924,"period_min":94.012013378664,"perigee_km":470.01039529936,"apogee_km":471.35550353743,"semimajor_km":6848.8199494184,"source":"CELESTRAK","updated_at":"2026-09-21T09:00:33.072703Z"}}}